Location: Beekmeers
(50.8953°N, 3.6968°E)
Time: 10:33:05
(UTC+00:00)

H-2A R/B - Pass Details

Date: 23 May 2024
Orbit: 567 x 637 km, 98.4° (Epoch: 14 June)

Event Time Altitude Azimuth Distance (km) Brightness Sun altitude
Rises 00:30:43 0° 9° (N) 2,953 7.3 -17.7°
Reaches altitude 10° 00:33:01 10° 2° (N) 2,040 6.0 -17.6°
Maximum altitude 00:37:10 40° 294° (WNW) 939 3.0 -17.4°
Enters shadow 00:39:22 24° 239° (WSW) 1,336 3.4 -17.4°
